Roanoke, VA

8:21 AM EST on December 07, 2016 (GMT -0500)
Roanoke Regional-Woodrum

Weather History for KROA - April, 2013

Change the Weather History Date:

Saturday, April 27, 2013

  Actual Average Record
Temperature  
Mean Temperature 58 °F 60 °F  
Max Temperature 67 °F 71 °F 95 °F (1957)
Min Temperature 49 °F 48 °F 28 °F (1926)
Degree Days  
Heating Degree Days 7 6  
Month to date heating degree days 225 257  
Since 1 July heating degree days 3866 4014  
Cooling Degree Days 0 1  
Month to date cooling degree days 43 19  
Year to date cooling degree days 43 24  
Growing Degree Days 7 (Base 50)    
Moisture  
Dew Point 42 °F    
Average Humidity 56    
Maximum Humidity 72    
Minimum Humidity 40    
Precipitation  
Precipitation T in 0.11 in 1.28 in (1973)
Month to date precipitation 2.63 3.04  
Year to date precipitation 15.32 12.31  
Snow  
Snow 0.00 in - - ()
Month to date snowfall 1.0  
Since 1 July snowfall 18.3  
Snow Depth 0.00 in    
Sea Level Pressure  
Sea Level Pressure 30.33 in    
Wind  
Wind Speed 3 mph (SE)    
Max Wind Speed 12 mph    
Max Gust Speed 15 mph    
Visibility 10 miles    
Events Rain    
T = Trace of Precipitation, MM = Missing Value Source: NWS Daily Summary

Daily Weather History Graph

Daily Weather History Graph

Search for Another Location

Airport or City:

Trip Planner

Search our weather history database for the weather conditions in past years. The results will help you decide how hot, cold, wet, or windy it might be!

Date:

Astronomy

Apr. 27, 2013 Rise Set
Actual Time 6:29 AM EDT 8:06 PM EDT
Civil Twilight 6:01 AM EDT 8:33 PM EDT
Nautical Twilight 5:28 AM EDT 9:07 PM EDT
Astronomical Twilight 4:53 AM EDT 9:42 PM EDT
Moon 10:31 PM EDT (4/27) 7:48 AM EDT (4/27)
Length of Visible Light 14h 32m
Length of Day
13h 36m
Waning Gibbous, 95% of the Moon is Illuminated
Apr 27
Waning Gibbous
May 2
Last Quarter
May 9
New
May 18
First Quarter
May 25
Full

Hourly Weather History & Observations

Time (EDT) Temp. Dew Point Humidity Pressure Visibility Wind Dir Wind Speed Gust Speed Precip Events Conditions
12:54 AM 54.0 °F 39.0 °F 57% 30.37 in 10.0 mi Calm Calm - N/A   Clear
1:54 AM 55.0 °F 39.0 °F 55% 30.38 in 10.0 mi Calm Calm - N/A   Clear
2:54 AM 54.0 °F 37.9 °F 55% 30.35 in 10.0 mi Calm Calm - N/A   Clear
3:54 AM 53.1 °F 41.0 °F 64% 30.35 in 10.0 mi Calm Calm - N/A   Clear
4:54 AM 53.1 °F 39.0 °F 59% 30.35 in 10.0 mi Calm Calm - N/A   Clear
5:54 AM 50.0 °F 41.0 °F 71% 30.36 in 10.0 mi Calm Calm - N/A   Clear
6:54 AM 51.1 °F 41.0 °F 68% 30.37 in 10.0 mi Calm Calm - N/A   Mostly Cloudy
7:54 AM 51.1 °F 39.9 °F 66% 30.38 in 10.0 mi Calm Calm - N/A   Overcast
8:54 AM 54.0 °F 41.0 °F 62% 30.37 in 10.0 mi NE 3.5 mph - N/A   Overcast
9:54 AM 55.9 °F 39.0 °F 53% 30.37 in 10.0 mi Calm Calm - N/A   Overcast
10:54 AM 60.1 °F 41.0 °F 49% 30.36 in 10.0 mi Calm Calm - N/A   Mostly Cloudy
11:54 AM 62.1 °F 42.1 °F 48% 30.35 in 10.0 mi South 5.8 mph - N/A   Overcast
12:54 PM 64.0 °F 42.1 °F 45% 30.34 in 10.0 mi East 6.9 mph - N/A   Mostly Cloudy
1:54 PM 66.0 °F 43.0 °F 43% 30.32 in 10.0 mi ESE 6.9 mph - N/A   Scattered Clouds
2:54 PM 66.0 °F 42.1 °F 42% 30.32 in 10.0 mi SE 6.9 mph - N/A   Mostly Cloudy
3:54 PM 66.0 °F 43.0 °F 43% 30.30 in 10.0 mi ESE 10.4 mph - N/A   Mostly Cloudy
4:54 PM 66.0 °F 41.0 °F 40% 30.29 in 10.0 mi South 8.1 mph - N/A   Overcast
5:54 PM 64.9 °F 42.1 °F 43% 30.29 in 10.0 mi SSW 10.4 mph - N/A   Overcast
6:54 PM 63.0 °F 43.0 °F 48% 30.29 in 10.0 mi SW 8.1 mph - N/A   Overcast
7:54 PM 61.0 °F 46.0 °F 58% 30.29 in 10.0 mi Calm Calm - N/A   Overcast
8:54 PM 59.0 °F 48.9 °F 69% 30.29 in 10.0 mi Calm Calm - 0.00 in Rain Light Rain
9:54 PM 60.1 °F 46.9 °F 62% 30.28 in 10.0 mi ESE 3.5 mph - 0.00 in   Overcast
10:54 PM 57.9 °F 48.0 °F 70% 30.28 in 10.0 mi SSE 3.5 mph - N/A   Mostly Cloudy
11:54 PM 57.9 °F 48.0 °F 70% 30.26 in 10.0 mi ESE 3.5 mph - N/A   Mostly Cloudy